Weather reports worldwide

Advertisment
Dieppe, France (7040): temperature & dewpoint: 20.05.2019 02:00:00 - 26.05.2019 02:00:00 (CEST)Dieppe, France (7040): temperature 5cm: 20.05.2019 02:00:00 - 26.05.2019 02:00:00 (CEST)Dieppe, France (7040): wind speed & gusts: 20.05.2019 02:00:00 - 26.05.2019 02:00:00 (CEST)Dieppe, France (7040): wind direction: 20.05.2019 02:00:00 - 26.05.2019 02:00:00 (CEST)Dieppe, France (7040): reduced air pressure: 20.05.2019 02:00:00 - 26.05.2019 02:00:00 (CEST)Dieppe, France (7040): visibility: 20.05.2019 02:00:00 - 26.05.2019 02:00:00 (CEST)Dieppe, France (7040): precipitation: 20.05.2019 02:00:00 - 26.05.2019 02:00:00 (CEST)
Date & Time tt [°C] td [°C] tt 5cm [°C] ff [km/h] ff [kn] fx [km/h] fx [kn] dd ppp [hPa] vv [km] rr [mm]
26.05.2019 02:00:00 - - - - - - - - - - -
26.05.2019 01:00:00 13,0 11,1 12,4 12 6 21 12 SW 1019,5 - 0,0
26.05.2019 00:00:00 13,0 10,9 12,1 11 6 20 11 SSW 1019,8 - 0,0
25.05.2019 23:00:00 13,1 11,3 12,3 13 7 34 18 W 1019,9 10 0,0
25.05.2019 22:00:00 13,7 11,2 13,0 19 11 33 18 W 1019,8 - 0,0
25.05.2019 21:00:00 14,6 11,4 14,2 14 8 28 15 W 1019,6 - 0,0
25.05.2019 20:00:00 15,2 11,6 15,1 18 10 32 17 W 1019,6 - 0,0
25.05.2019 19:00:00 15,5 12,4 16,1 17 9 31 17 WNW 1019,5 - 0,0
25.05.2019 18:00:00 15,7 12,8 16,5 20 11 31 17 WNW 1019,5 - 0,0
25.05.2019 17:00:00 16,1 12,5 18,2 16 9 26 14 W 1019,7 - 0,0
25.05.2019 16:00:00 16,7 12,6 21,4 15 8 19 11 WNW 1019,7 - 0,0
25.05.2019 15:00:00 16,7 13,2 19,4 14 7 20 11 WNW 1020,0 - 0,0
25.05.2019 14:00:00 16,5 12,5 20,0 9 5 15 8 NNW 1020,4 12 0,0
25.05.2019 13:00:00 16,7 12,6 19,6 10 6 15 8 NW 1020,4 - 0,0
25.05.2019 12:00:00 16,4 12,2 17,2 7 4 11 6 NW 1020,3 - 0,0
25.05.2019 11:00:00 15,3 12,2 16,0 4 2 9 5 NNW 1020,4 12 0,0
25.05.2019 10:00:00 15,0 12,3 16,1 5 3 10 5 NW 1019,9 - 0,0
25.05.2019 09:00:00 14,5 12,4 14,1 8 5 13 7 WNW 1019,4 - 0,0
25.05.2019 08:00:00 13,2 11,3 12,6 5 3 13 7 WSW 1018,9 16 0,0
25.05.2019 07:00:00 12,7 11,1 11,3 7 4 12 6 W 1018,7 - 0,0
25.05.2019 06:00:00 11,8 9,9 11,1 7 4 14 7 S 1018,3 - 0,0
25.05.2019 05:00:00 12,6 10,1 11,6 6 4 16 9 SSW 1018,3 - 0,0
25.05.2019 04:00:00 13,4 11,1 11,9 10 5 17 9 W 1018,5 - 0,0
25.05.2019 03:00:00 13,1 9,9 11,9 6 4 13 7 SW 1018,4 - 0,0
25.05.2019 02:00:00 13,6 9,8 12,7 7 4 19 10 WSW 1018,4 13 0,0
25.05.2019 01:00:00 14,1 9,9 13,4 10 6 17 9 W 1018,7 - 0,0
25.05.2019 00:00:00 14,2 9,6 13,4 9 5 15 8 W 1018,9 - 0,0
24.05.2019 23:00:00 13,7 9,1 13,3 7 4 16 9 W 1018,8 8 0,0
24.05.2019 22:00:00 13,7 10,5 13,4 9 5 16 9 WNW 1018,5 - 0,0
24.05.2019 21:00:00 13,8 11,0 13,7 11 6 23 12 WNW 1018,2 - 0,0
24.05.2019 20:00:00 14,3 10,9 14,1 16 9 29 15 NW 1018,0 6 0,0
24.05.2019 19:00:00 15,0 10,4 15,9 17 9 29 15 NW 1017,7 - 0,0
24.05.2019 18:00:00 15,7 11,5 16,8 14 8 25 13 WNW 1017,8 - 0,0
24.05.2019 17:00:00 15,7 11,1 17,4 16 9 19 11 WNW 1018,0 - 0,0
24.05.2019 16:00:00 15,6 11,2 19,4 11 6 22 12 WNW 1018,2 - 0,0
24.05.2019 15:00:00 15,4 11,4 18,8 14 8 22 12 NW 1018,2 - 0,0
24.05.2019 14:00:00 15,2 11,4 18,1 15 8 24 13 WNW 1018,2 13 0,0
24.05.2019 13:00:00 15,1 11,5 16,8 14 8 24 13 WNW 1018,3 - 0,0
24.05.2019 12:00:00 14,6 11,2 16,4 19 10 27 15 NW 1018,3 - 0,0
24.05.2019 11:00:00 14,2 11,0 16,9 14 7 23 12 WNW 1017,6 12 0,0
24.05.2019 10:00:00 14,0 11,0 15,4 14 8 25 14 WNW 1017,4 - 0,0
24.05.2019 09:00:00 13,7 10,9 14,4 18 10 24 13 WNW 1017,3 - 0,0
24.05.2019 08:00:00 11,5 9,1 10,6 9 5 17 9 SW 1017,1 10 0,0
24.05.2019 07:00:00 10,1 8,2 9,1 11 6 18 10 SSW 1016,9 - 0,0
24.05.2019 06:00:00 10,4 8,0 9,4 8 4 14 8 SSW 1016,8 - 0,0
24.05.2019 05:00:00 10,9 7,9 9,4 9 5 14 7 SSW 1016,8 15 0,0
24.05.2019 04:00:00 11,0 7,3 9,6 8 4 14 8 SW 1016,9 - 0,0
24.05.2019 03:00:00 11,8 7,9 10,2 6 3 17 9 SW 1016,9 - 0,0
24.05.2019 02:00:00 12,6 6,8 11,0 10 5 15 8 W 1017,2 15 0,0
24.05.2019 01:00:00 13,2 9,3 11,9 8 4 17 9 W 1017,3 - 0,0
24.05.2019 00:00:00 14,4 8,6 13,6 9 5 16 9 WSW 1017,3 - 0,0
23.05.2019 23:00:00 14,3 9,3 13,0 8 5 13 7 SSW 1017,6 - 0,0
23.05.2019 22:00:00 14,2 9,6 13,4 8 5 13 7 W 1017,3 - 0,0
23.05.2019 21:00:00 14,5 10,3 12,9 5 3 12 7 WSW 1017,1 - 0,0
23.05.2019 20:00:00 14,7 10,7 12,9 10 5 25 13 NNW 1016,9 15 0,0
23.05.2019 19:00:00 16,1 10,4 16,0 7 4 11 6 NW 1017,1 - 0,0
23.05.2019 18:00:00 17,6 10,2 19,1 8 4 14 8 N 1016,8 - 0,0
23.05.2019 17:00:00 18,3 10,4 19,9 6 4 13 7 NE 1017,0 15 0,0
23.05.2019 16:00:00 19,1 10,4 20,2 6 3 30 16 NW 1017,2 - 0,0
23.05.2019 15:00:00 22,8 9,9 22,7 12 6 31 17 SW 1017,2 - 0,0
23.05.2019 14:00:00 21,3 7,9 22,9 15 8 31 17 SW 1017,4 12 0,0
23.05.2019 13:00:00 21,7 6,8 23,4 14 7 34 18 S 1017,9 - 0,0
23.05.2019 12:00:00 21,0 8,6 22,2 15 8 31 17 SSW 1018,1 - 0,0
23.05.2019 11:00:00 19,5 9,1 21,0 15 8 30 16 SSW 1018,3 - 0,0
23.05.2019 10:00:00 17,7 9,8 17,4 13 7 26 14 S 1018,3 - 0,0
23.05.2019 09:00:00 14,3 8,7 11,8 14 8 23 12 S 1018,6 - 0,0
23.05.2019 08:00:00 9,5 6,8 8,0 15 8 22 12 S 1018,7 - 0,0
23.05.2019 07:00:00 7,6 5,7 7,0 16 9 22 12 S 1018,6 - 0,0
23.05.2019 06:00:00 7,3 5,6 6,9 16 9 22 12 S 1018,6 - 0,0
23.05.2019 05:00:00 7,5 5,6 7,0 16 9 22 12 S 1018,7 - 0,0
23.05.2019 04:00:00 7,7 5,8 7,3 16 9 22 12 S 1019,1 - 0,0
23.05.2019 03:00:00 8,0 5,8 7,5 16 9 23 12 S 1019,2 - 0,0
23.05.2019 02:00:00 8,6 6,0 8,1 16 9 21 11 S 1019,7 12 0,0
23.05.2019 01:00:00 9,4 6,3 8,7 14 8 19 10 S 1019,9 - 0,0
23.05.2019 00:00:00 10,5 6,4 9,7 10 5 13 7 S 1020,1 - 0,0
22.05.2019 23:00:00 12,3 6,3 7,0 7 4 8 5 S 1020,5 12 0,0
22.05.2019 22:00:00 12,5 5,9 7,2 0 0 4 2 N 1020,4 - 0,0
22.05.2019 21:00:00 14,3 7,3 13,3 2 1 5 3 NNW 1020,3 - 0,0
22.05.2019 20:00:00 16,4 9,8 15,6 3 2 9 5 NW 1020,6 - 0,0
22.05.2019 19:00:00 16,2 9,8 17,3 6 4 11 6 NW 1020,5 - 0,0
22.05.2019 18:00:00 15,4 10,2 17,0 5 3 10 5 NW 1020,8 - 0,0
22.05.2019 17:00:00 15,2 10,8 17,1 8 4 13 7 WNW 1021,0 - 0,0
22.05.2019 16:00:00 15,0 10,6 17,1 9 5 15 8 NW 1021,3 - 0,0
22.05.2019 15:00:00 14,8 10,6 17,5 6 4 17 9 NW 1021,5 - 0,0
22.05.2019 14:00:00 15,4 10,8 17,5 12 7 19 10 NW 1021,4 12 0,0
22.05.2019 13:00:00 14,7 10,9 16,4 11 6 19 11 NW 1021,5 - 0,0
22.05.2019 12:00:00 14,4 10,6 16,5 14 8 23 12 WNW 1021,3 - 0,0
22.05.2019 11:00:00 14,4 10,8 15,6 11 6 18 10 W 1021,0 12 0,0
22.05.2019 10:00:00 13,9 9,5 14,6 9 5 14 8 WNW 1021,0 - 0,0
22.05.2019 09:00:00 11,5 7,8 10,0 9 5 17 9 S 1020,7 - 0,0
22.05.2019 08:00:00 9,2 6,5 9,0 10 5 21 12 S 1020,4 - 0,0
22.05.2019 07:00:00 8,5 6,1 7,5 13 7 22 12 S 1020,2 - 0,0
22.05.2019 06:00:00 8,0 6,0 7,4 15 8 21 12 S 1020,2 - 0,0
22.05.2019 05:00:00 8,5 6,5 8,0 16 9 22 12 S 1020,1 10 0,0
22.05.2019 04:00:00 8,9 6,7 8,3 15 8 21 11 S 1020,3 - 0,0
22.05.2019 03:00:00 9,7 7,1 8,8 13 7 19 10 S 1020,4 - 0,0
22.05.2019 02:00:00 9,9 7,7 9,2 14 8 19 10 S 1020,4 10 0,0
22.05.2019 01:00:00 10,8 8,2 10,0 11 6 16 9 S 1020,5 - 0,0
22.05.2019 00:00:00 12,3 8,2 10,4 7 4 12 7 SSW 1020,4 - 0,0
21.05.2019 23:00:00 12,7 8,4 11,2 7 4 13 7 W 1020,5 10 0,0
21.05.2019 22:00:00 13,1 9,2 12,0 8 5 18 10 W 1020,1 - 0,0
21.05.2019 21:00:00 13,6 10,8 13,2 11 6 18 10 WNW 1019,7 - 0,0
21.05.2019 20:00:00 15,2 11,4 14,7 10 5 16 9 WNW 1019,5 - 0,0
21.05.2019 19:00:00 16,1 11,5 17,1 10 5 15 8 WNW 1019,2 - 0,0
21.05.2019 18:00:00 16,4 12,0 17,4 8 5 11 6 WNW 1019,3 - 0,0
21.05.2019 17:00:00 16,5 12,1 18,8 6 3 10 5 NNW 1019,4 6 0,0
21.05.2019 16:00:00 17,8 12,9 21,5 8 4 18 10 NNW 1019,3 - 0,0
21.05.2019 15:00:00 17,0 12,7 20,5 13 7 17 9 N 1019,2 - 0,0
21.05.2019 14:00:00 16,0 12,0 19,1 9 5 13 7 NNW 1018,9 7 0,0
21.05.2019 13:00:00 15,6 12,3 17,2 10 5 16 9 NNW 1018,7 - 0,0
21.05.2019 12:00:00 14,8 11,8 16,6 8 4 22 12 NW 1018,3 - 0,0
21.05.2019 11:00:00 14,8 12,1 18,4 15 8 21 11 WNW 1018,0 9 0,0
21.05.2019 10:00:00 14,0 11,9 15,2 14 8 22 12 WNW 1017,7 - 0,0
21.05.2019 09:00:00 12,9 11,1 13,0 7 4 12 6 WSW 1017,2 - 0,0
21.05.2019 08:00:00 11,7 10,1 11,5 6 3 14 7 SSW 1016,8 10 0,0
21.05.2019 07:00:00 11,2 10,1 9,3 8 4 11 6 SSW 1016,2 - 0,0
21.05.2019 06:00:00 10,5 8,9 9,6 8 4 12 6 SSW 1016,0 - 0,0
21.05.2019 05:00:00 11,8 9,9 10,8 5 3 14 8 SSW 1015,7 7 0,0
21.05.2019 04:00:00 12,3 10,2 11,4 8 4 18 10 SSW 1015,6 - 0,0
21.05.2019 03:00:00 12,6 10,5 11,8 10 6 22 12 W 1015,6 - 0,0
21.05.2019 02:00:00 12,8 11,0 12,2 13 7 29 16 W 1015,7 7 0,0
21.05.2019 01:00:00 13,2 10,9 12,6 18 10 28 15 WNW 1015,7 - 0,0
21.05.2019 00:00:00 13,5 9,9 12,8 14 7 23 12 W 1015,7 - 0,0
20.05.2019 23:00:00 13,3 9,2 12,7 9 5 18 10 W 1015,5 9 0,0
20.05.2019 22:00:00 13,1 9,5 12,3 8 4 15 8 W 1014,9 - 0,0
20.05.2019 21:00:00 13,4 10,2 12,9 8 5 19 11 WNW 1014,6 - 0,0
20.05.2019 20:00:00 14,2 10,4 14,3 14 8 22 12 WNW 1014,0 9 0,0
20.05.2019 19:00:00 14,4 10,2 15,0 9 5 13 7 NNW 1014,0 - 0,0
20.05.2019 18:00:00 15,3 10,5 16,2 8 4 13 7 NNW 1014,0 - 0,0
20.05.2019 17:00:00 17,3 11,3 18,5 10 5 13 7 NNW 1013,8 5 0,0
20.05.2019 16:00:00 17,2 11,7 20,8 9 5 15 8 NNW 1013,6 - 0,0
20.05.2019 15:00:00 16,8 11,7 20,2 11 6 19 10 NNW 1013,5 - 0,0
20.05.2019 14:00:00 16,3 11,9 18,7 14 8 19 11 N 1013,1 5 0,0
20.05.2019 13:00:00 15,8 11,0 16,8 12 7 18 10 NNW 1012,7 - 0,0
20.05.2019 12:00:00 14,4 11,0 14,9 12 7 18 10 NNW 1012,6 - 0,0
20.05.2019 11:00:00 13,3 11,2 13,9 10 5 19 11 NW 1012,3 - 0,0
20.05.2019 10:00:00 13,3 10,7 14,1 11 6 16 9 NNW 1012,0 - 0,0
20.05.2019 09:00:00 13,2 9,8 12,7 8 5 12 6 NNW 1011,6 - 0,0
20.05.2019 08:00:00 12,6 9,2 12,2 7 4 12 7 NW 1011,0 8 0,0
20.05.2019 07:00:00 12,4 9,8 11,9 7 4 11 6 NNW 1010,6 - 0,0
20.05.2019 06:00:00 12,3 9,5 12,0 10 5 15 8 N 1010,5 - 0,0
20.05.2019 05:00:00 12,3 9,7 11,8 8 5 12 7 NNW 1010,4 8 0,0
20.05.2019 04:00:00 12,0 9,4 11,8 9 5 15 8 NNW 1010,4 - 0,0
20.05.2019 03:00:00 12,0 9,6 11,7 11 6 19 10 N 1010,7 - 0,0
20.05.2019 02:00:00 12,2 9,4 11,8 14 8 22 12 N 1011,0 6 0,0

tt = temperature
td = dewpoint
tt 5cm = temperature 5cm
ff = wind speed
fx = gusts
dd = wind direction
ppp = reduced air pressure
vv = visibility
rr = precipitation

Next stations